Location: Bastrop State Park
(30.1090°N, 97.2819°W)
Time: 15:52:37
(UTC-05:00)

Daily predictions for brighter satellites

Satellite Brightness Start Highest point End
(mag) Time Altitude Azimuth Time Altitude Azimuth Time Altitude Azimuth
SEDSat Delta rocket 4.2 19:34:08 10° WSW 19:40:46 69° SSE 19:47:31 10° E
GPS 2-04 Rocket1 4.5 19:44:25 10° S 19:46:13 13° SE 19:48:02 10° ESE
SeaSat 1 3.8 19:46:41 10° ENE 19:49:56 18° ESE 19:53:10 10° SSE
ASTRO E2 2.7 19:46:05 10° WSW 19:50:06 76° SSE 19:54:08 10° E
Cosmos 2237 Rocket 2.9 19:45:00 10° SSW 19:50:36 61° WNW 19:56:14 10° NNE
Cosmos 1844 Rocket 3.0 19:45:04 10° NNW 19:50:38 72° WSW 19:56:13 10° S
NOSS 3-2 (A) 3.5 19:45:46 10° SSW 19:51:34 58° ESE 19:57:45 10° NE
SWIFT 4.1 19:50:47 10° SW 19:54:04 22° S 19:57:19 10° SE
Cosmos 1953 3.9 19:53:02 10° SE 19:55:26 16° E 19:57:49 10° NE
Cosmos 2233 Rocket 4.2 19:49:13 10° S 19:55:29 83° W 20:01:50 10° N
CZ-2C R/B 4.4 19:52:13 10° SSW 19:56:48 35° W 20:01:18 10° NNW
Cosmos 921 Rocket 3.0 20:00:05 10° NNW 20:04:17 81° WSW 20:08:26 10° S
NOAA 12 4.1 19:59:16 10° SSE 20:04:22 58° ENE 20:09:32 10° N
ATLAS 5 CENTAUR R/B 2.2 20:02:16 10° S 20:06:35 39° ESE 20:11:08 10° NE
SL-16 R/B 2.2 20:02:46 10° SSW 20:08:25 78° ESE 20:14:07 10° NNE
Spot 2 Rocket 3.8 20:08:41 10° SE 20:13:27 44° ENE 20:18:14 10° N
Cosmos-2242 3.9 20:12:48 10° SSE 20:16:28 27° E 20:20:09 10° NNE
Abrixas rocket 2.1 20:13:16 10° NW 20:16:37 89° NE 20:18:56 18° SE
SAR-Lupe-1 4.2 20:13:48 10° S 20:17:20 73° WSW 20:20:54 10° NNW
ASC 2 Rocket 3.8 20:14:27 10° WSW 20:18:18 35° S 20:20:42 19° ESE
Cosmos 1805 4.0 20:15:04 10° SSE 20:18:29 30° E 20:21:56 10° NNE
Spot 1 4.3 20:14:30 10° SSE 20:19:21 61° ENE 20:23:59 10° N
Cosmos 2056 Rocket 3.8 20:14:26 10° N 20:19:42 50° ENE 20:24:56 10° SSE
Cosmos 1076 Rocket 4.2 20:15:57 10° NNE 20:19:51 32° E 20:23:19 12° SE
Resurs 01 Rocket 1.8 20:15:47 10° SSE 20:20:04 49° ENE 20:24:22 10° N
Cosmos 1437 2.6 20:18:00 10° N 20:21:15 79° E 20:24:30 10° S
Meteor 1-22 Rocket 4.2 20:16:32 10° S 20:21:59 79° W 20:27:18 10° N
H-2A R/B 4.4 20:23:12 18° ENE 20:23:12 18° ENE 20:25:24 10° NNE
FREGAT/IRIS 2.8 20:23:12 10° S 20:26:18 75° WSW 20:29:23 10° NNW
Resurs 1-3 3.9 20:22:18 10° SE 20:26:26 43° ENE 20:30:36 10° N
Aureole 2 Rocket 3.4 20:22:46 10° SSW 20:27:05 66° WNW 20:31:27 10° N
NOSS 3-2 (C) 3.4 20:21:52 10° SSW 20:27:50 88° ESE 20:34:14 10° NNE
ALOS 3.0 20:26:20 21° ESE 20:28:36 32° ENE 20:32:44 10° N
Cosmos 1408 Rocket 4.0 20:24:43 10° NNE 20:28:44 36° E 20:30:56 22° SE
SJ-6B 3.4 20:25:05 10° S 20:28:54 58° W 20:32:50 10° NNW
Cosmos 1371 Rocket 4.0 20:23:48 10° NNW 20:29:07 87° ENE 20:34:28 10° SSE
Okean 3 Rocket 3.7 20:26:34 10° N 20:31:08 79° W 20:35:39 10° S
Delta 168 4.4 20:27:43 10° SW 20:32:47 45° SSE 20:36:49 24° ESE
Helios 1B rocket 2.7 20:29:18 10° N 20:33:23 70° WNW 20:37:28 10° SSW
CENTAUR R/B 3.8 20:30:47 10° SSE 20:32:48 17° SE 20:32:48 17° SE
Cosmos 1758 3.4 20:31:17 10° S 20:35:14 54° E 20:39:14 10° NNE
Cosmos 2278 Rocket 2.8 20:34:52 10° NNW 20:40:25 58° WSW 20:45:55 10° S
Meteor 1-24 Rocket 3.8 20:35:38 10° NNW 20:41:14 74° W 20:46:37 10° S
ASTEX 1 3.7 20:37:18 10° NNE 20:41:55 41° E 20:45:33 15° SSE
Cosmos 2297 3.6 20:37:23 10° NNW 20:43:00 66° ENE 20:46:49 21° SSE
METEOR-M 4.2 20:38:21 10° S 20:43:41 78° WSW 20:49:02 10° NNW
Cosmos 1378 3.2 20:40:33 10° N 20:44:16 76° W 20:47:58 10° S
Intelsat 5-2 Rocket 3.9 20:38:24 10° WSW 20:44:45 34° S 20:45:44 29° SSE
Cosmos 1624 Rocket 4.1 20:42:10 10° NNW 20:47:23 78° WSW 20:52:33 10° S
FENGYUN 3A 3.7 20:44:35 23° SE 20:47:44 53° ENE 20:52:57 10° N
HJ-1C 4.0 20:44:49 10° S 20:48:06 56° W 20:51:25 10° NNW
Meteor 1-29 4.4 20:48:41 10° N 20:52:00 40° WNW 20:55:17 10° SW
Myojo/LAPS 3.9 20:51:21 10° WSW 20:53:35 35° S 20:53:37 35° S
OAO 3 Rocket 3.7 20:50:14 10° W 20:54:55 52° N 20:56:35 35° NE
Cosmos 1603 3.6 20:49:40 10° S 20:55:20 70° ESE 21:01:03 10° NNE
Nadezhda 4 Rocket 4.2 20:50:49 10° N 20:56:50 47° E 20:58:29 38° ESE
ATLAS CENTAUR R/B 1.2 20:54:48 10° NNW 20:58:51 76° WSW 20:59:27 60° S
FengYun 1-2 T 4.2 20:53:23 10° SSE 20:58:56 84° WSW 21:04:27 10° NNW
GPS 2-05 Rocket1 3.8 20:55:45 10° W 20:58:59 39° SSW 20:58:59 39° SSW
Meteosat 1 Rocket2 4.3 21:04:43 10° SW 21:09:09 31° S 21:09:09 31° S
Helios 1A 4.2 21:06:36 10° S 21:10:32 40° W 21:14:29 10° NNW
Atlas Centaur 2 2.9 21:03:39 10° W 21:12:05 75° SSW 21:14:28 48° ESE
Cosmos 1452 Rocket 3.4 21:11:21 10° N 21:16:25 70° NE 21:16:25 70° NE
Meteor 1-21 Rocket 4.0 21:12:08 10° N 21:17:42 83° E 21:18:42 61° SSE
SL-8 R/B 4.0 21:22:15 10° SW 21:26:24 64° W 21:26:24 64° W
SeaSat 1 3.5 21:22:52 10° N 21:27:32 44° WNW 21:32:10 10° SW
SEDSat Delta rocket 3.9 21:20:46 10° W 21:27:37 81° N 21:28:30 68° ENE
ASTRO E2 4.2 21:26:46 10° W 21:29:15 36° WNW 21:29:15 36° WNW
BREEZE-M DEB (TANK) 3.6 21:32:21 10° NW 21:45:55 67° SW 21:46:05 66° SW
ATLAS 5 CENTAUR R/B 4.3 21:48:01 10° W 21:51:23 19° NW 21:54:56 10° N
